Regional Weather Roundup
Issued by NWS Nashville, TN

Home | Current Version | Previous Version | Text Only | Print | Product List | Glossary On
Versions: 1 2 3 4 5 6 7 8 9 10 11 12 13 14 15 16 17 18 19 20 21 22 23 24 25 26 27 28 29 30 31 32 33 34 35 36 37 38 39 40 41 42 43 44 45 46 47 48 49 50
000
ASUS44 KOHX 301910
RWROHX
MIDDLE TENNESSEE HOURLY WEATHER ROUNDUP
NATIONAL WEATHER SERVICE NASHVILLE TN
200 PM CDT SAT AUG 30 2014

NOTE: "FAIR" INDICATES FEW OR NO CLOUDS BELOW 12,000 FEET WITH
NO SIGNIFICANT WEATHER AND/OR OBSTRUCTIONS TO VISIBILITY.

* THESE REPORTS ARE NOT UNDER NWS QUALITY CONTROL AND MAY NOT
  REPORT WEATHER SUCH AS PRECIPITATION AND FOG.


TNZ005>011-023>034-057-059-062>066-078-080-302000
...NORTHERN MIDDLE TENNESSEE...

CITY           SKY/WX    TMP DP  RH WIND       PRES   REMARKS
CLARKSVILLE    LGT RAIN  76  72  87 S9        30.06F FOG
CROSSVILLE     CLOUDY    80  66  62 S6        30.16F
GALLATIN         N/A     83  71  66 CALM      30.09F
DICKSON        CLOUDY    75  70  83 CALM      30.07F
LEBANON        CLOUDY    83  68  60 CALM      30.07F
NASHVILLE      CLOUDY    84  71  65 NW3       30.07F
WEST NASHVILLE   N/A     77  77 100 CALM      30.07F
SMYRNA         CLOUDY    85  70  60 E5        30.07F
SPARTA         SUNNY     84  72  65 S7        30.10F
$$
TNZ056-058-060-061-075>077-079-093>097-302000
...SOUTHERN MIDDLE TENNESSEE...

CITY           SKY/WX    TMP DP  RH WIND       PRES   REMARKS
COLUMBIA         N/A     84  73  70 CALM      30.06F HX  91
FAYETTEVILLE   MOSUNNY   84  70  61 S6        30.08F
LEWISBURG      CLOUDY    87  69  54 E3        30.06F HX  91
MCMINNVILLE    SUNNY     86  73  66 SE3       30.09F HX  93
SHELBYVILLE    MOSUNNY   88  73  62 VRB3      30.08F HX  96
TULLAHOMA      SUNNY     86  70  58 SE8       30.10F HX  90
WINCHESTER     MOSUNNY   88  72  58 S9        30.09F HX  94
$$


...KEY TO REMARKS...
VSB - VISIBILITY IN MILES
WCI - WIND CHILL INDEX
HX  - HEAT INDEX



USA.gov is the U.S. government's official web portal to all federal, state and local government web resources and services.